Location: Breux
(46.3269°N, 3.2993°E)
Time: 19:57:37
(UTC+00:00)

SL-4 R/B - Pass Details

Date: 09 April 2020
Orbit: 428 x 666 km, 51.6° (Epoch: 01 June)

Event Time Altitude Azimuth Distance (km) Brightness Sun altitude
Rises 20:41:09 0° 282° (WNW) 2,393 6.3 -21.6°
Reaches altitude 10° 20:43:23 10° 292° (WNW) 1,529 5.3 -21.9°
Maximum altitude 20:46:30 33° 358° (N) 763 3.1 -22.3°
Enters shadow 20:47:07 30° 21° (NNE) 810 3.0 -22.4°
